This is the latest recevied weather packets stored in our database for station/object W2MMD-13. If no packets are shown the sender has not sent any weather packets the latest 10 day(s).
| Time | Temp. | Humidity | Pressure | Rain* | Wind** | Luminosity | Snow |
|---|---|---|---|---|---|---|---|
| 1777741719 | 15° C | 53% | - | 0 mm | - | - | - |
| 1777741130 | 14.44° C | 55% | - | 0 mm | - | - | - |
| 1777741119 | 14.44° C | 55% | - | 0 mm | - | - | - |
| 1777740530 | 14.44° C | 57% | - | 0 mm | - | - | - |
| 1777740519 | 14.44° C | 56% | - | 0 mm | - | - | - |
| 1777739919 | 13.89° C | 55% | - | 0 mm | - | - | - |
| 1777739330 | 14.44° C | 60% | - | 0 mm | - | - | - |
| 1777739319 | 14.44° C | 61% | - | 0 mm | - | - | - |
| 1777738719 | 13.89° C | 59% | - | 0 mm | - | - | - |
| 1777738119 | 12.78° C | 62% | - | 0 mm | - | - | - |
| 1777737519 | 13.33° C | 64% | - | 0 mm | - | - | - |
| 1777736961 | 13.33° C | 64% | - | 0 mm | - | - | - |
| 1777736919 | 13.33° C | 64% | - | 0 mm | - | - | - |
| 1777736330 | 12.78° C | 64% | - | 0 mm | - | - | - |
| 1777736319 | 12.78° C | 64% | - | 0 mm | - | - | - |
| 1777735719 | 12.78° C | 63% | - | 0 mm | - | - | - |
| 1777735130 | 12.78° C | 65% | - | 0 mm | - | - | - |
| 1777735119 | 12.78° C | 65% | - | 0 mm | - | - | - |
| 1777734520 | 12.78° C | 68% | - | 0 mm | - | - | - |
| 1777733920 | 12.78° C | 69% | - | 0 mm | - | - | - |
| 1777733320 | 12.78° C | 71% | - | 0 mm | - | - | - |
| 1777732720 | 12.78° C | 71% | - | 0 mm | - | - | - |
| 1777732120 | 12.78° C | 74% | - | 0 mm | - | - | - |
| 1777730320 | 12.78° C | 74% | - | 0 mm | - | - | - |
| 1777729720 | 12.22° C | 76% | - | 0 mm | - | - | - |
* Rain latest hour (hover to see other rain measurements)
** Current wind speed in m/s (hover to see current wind gust speed)